This is the latest recevied weather packets stored in our database for station/object SP3VBV-2. If no packets are shown the sender has not sent any weather packets the latest 10 day(s).
| Time | Temp. | Humidity | Pressure | Rain* | Wind** | Luminosity | Snow |
|---|---|---|---|---|---|---|---|
| 1777788711 | 14.44° C | 56% | 1016.8 hPa | - | - | - | - |
| 1777788111 | 13.89° C | 59% | 1016.8 hPa | - | - | - | - |
| 1777787511 | 13.33° C | 61% | 1016.9 hPa | - | - | - | - |
| 1777786911 | 13.33° C | 61% | 1016.9 hPa | - | - | - | - |
| 1777785757 | 12.78° C | 60% | 1016.9 hPa | - | - | - | - |
| 1777785197 | 12.22° C | 63% | 1016.9 hPa | - | - | - | - |
| 1777784519 | 12.22° C | 61% | 1017.2 hPa | - | - | - | - |
| 1777783919 | 11.11° C | 67% | 1017.2 hPa | - | - | - | - |
| 1777783319 | 10° C | 75% | 1017.2 hPa | - | - | - | - |
| 1777782719 | 10.56° C | 69% | 1017.2 hPa | - | - | - | - |
| 1777782125 | 11.11° C | 64% | 1017.1 hPa | - | - | - | - |
| 1777781519 | 11.67° C | 60% | 1017 hPa | - | - | - | - |
| 1777780319 | 11.67° C | 59% | 1017.1 hPa | - | - | - | - |
| 1777779720 | 11.67° C | 59% | 1017.1 hPa | - | - | - | - |
| 1777779118 | 11.67° C | 59% | 1017.1 hPa | - | - | - | - |
| 1777778524 | 11.67° C | 59% | 1017.2 hPa | - | - | - | - |
| 1777777918 | 11.67° C | 59% | 1017.1 hPa | - | - | - | - |
| 1777777318 | 11.67° C | 59% | 1017.2 hPa | - | - | - | - |
| 1777776719 | 11.67° C | 59% | 1017.3 hPa | - | - | - | - |
| 1777776119 | 11.67° C | 61% | 1017.2 hPa | - | - | - | - |
| 1777775519 | 11.67° C | 62% | 1017.3 hPa | - | - | - | - |
| 1777774918 | 11.67° C | 61% | 1017.3 hPa | - | - | - | - |
| 1777774318 | 11.11° C | 62% | 1017.5 hPa | - | - | - | - |
| 1777773718 | 11.11° C | 64% | 1017.4 hPa | - | - | - | - |
| 1777773119 | 11.67° C | 64% | 1017.6 hPa | - | - | - | - |
* Rain since midnight (hover to see other rain measurements)
** Current wind speed in m/s (hover to see current wind gust speed)